Theta_e
353 354 354 353 354 356 355 354 354 355 354 352 353 352 351 349 351 349 348 348 347 347 348 346 342 341 342 346 347 345 344 345 344 344 345 347 351 357 361 361 361 359 359 358 357 358 356 358 356 358 357 357 356 357 357 355 355 355 356 355 355 355 354 354 353 353 353 353 352 352 353 353 353 352 353 353 353 353 353 353 353 353 353 353 352
354 353 353 353 352 354 354 353 353 353 353 352 353 350 349 349 349 351 349 348 347 347 347 344 343 342 339 339 341 344 345 344 344 344 346 348 351 355 363 362 362 361 358 357 357 357 358 356 356 358 355 356 356 357 356 356 355 355 354 354 356 355 355 355 354 354 353 353 353 352 353 352 352 352 353 352 353 354 354 354 354 354 354 353 353
353 352 352 353 351 351 351 351 351 351 353 353 353 351 350 350 350 348 346 347 347 346 347 344 342 341 342 339 339 339 340 343 344 345 345 347 352 354 360 361 362 362 361 359 357 358 357 356 355 355 356 355 355 354 355 355 355 355 353 353 355 354 355 355 355 355 355 354 354 353 353 353 354 353 352 352 352 353 354 354 354 354 354 354 354
353 352 351 351 350 350 350 350 351 351 354 353 353 354 351 350 351 350 349 349 346 345 347 344 341 340 338 339 339 339 338 339 343 345 346 348 351 353 356 361 363 363 362 361 357 359 357 357 356 356 355 356 355 354 355 354 354 354 354 354 355 355 355 354 354 354 355 355 353 355 354 354 353 353 354 353 353 352 350 351 353 352 353 354 354
352 352 357 351 350 350 349 352 351 351 354 354 354 352 352 351 350 353 347 347 345 345 347 341 338 337 337 338 338 339 340 338 338 343 347 350 351 353 354 357 359 361 362 361 359 359 358 357 357 357 356 356 356 355 353 354 352 353 354 354 354 354 355 354 354 355 355 353 354 353 354 355 354 354 354 354 354 353 353 350 350 352 354 354 354
355 351 353 350 350 350 350 350 350 352 353 353 351 351 349 347 346 348 354 348 344 344 342 338 337 336 336 339 337 340 338 337 341 346 349 351 351 350 353 354 356 355 357 361 359 359 358 358 358 358 357 357 354 355 353 353 354 353 353 352 353 353 354 355 354 354 354 354 354 354 353 354 354 354 354 354 354 354 354 354 353 353 353 353 354
356 353 352 350 350 350 350 350 352 353 351 352 351 350 349 348 350 346 344 344 342 345 343 337 338 338 335 340 336 344 337 336 343 349 350 350 351 351 352 353 355 353 357 355 360 360 360 358 358 358 357 357 356 357 351 349 347 351 352 353 352 354 354 353 353 353 353 354 354 353 353 354 354 354 353 352 353 353 352 353 354 355 354 354 355
356 354 352 351 350 350 350 351 353 353 351 351 350 351 348 348 350 346 343 342 343 338 339 337 336 339 338 338 338 347 336 335 341 347 350 351 352 351 350 350 351 351 360 352 354 357 360 358 357 358 357 357 355 355 355 352 353 353 353 353 353 354 354 354 352 352 351 352 353 353 353 354 354 353 351 353 353 351 348 348 350 353 354 354 355
357 355 352 352 350 350 351 352 355 353 350 350 351 351 348 348 344 349 343 340 339 339 337 335 335 335 334 338 337 342 336 337 336 342 350 349 349 351 350 350 353 362 354 353 353 354 359 360 359 357 357 356 353 354 354 355 353 354 352 354 353 355 354 353 354 352 351 351 351 353 352 353 352 350 350 351 353 351 349 348 348 351 352 351 353
358 356 353 353 352 352 352 353 354 352 350 349 349 347 345 345 343 345 346 342 336 338 336 334 336 335 334 335 335 337 336 337 345 350 345 347 347 349 350 350 352 352 353 353 355 355 354 358 359 357 356 356 356 355 354 353 352 353 352 350 352 351 353 353 353 353 352 353 353 353 353 351 351 349 348 349 351 352 351 350 349 350 351 353 352
358 358 354 355 353 353 354 354 354 351 349 349 346 347 346 344 342 342 346 342 337 336 334 333 335 336 336 334 336 335 334 343 339 338 341 346 348 351 351 347 347 347 350 351 352 354 353 351 351 349 350 356 355 355 356 355 354 355 354 353 354 352 353 353 352 351 352 352 353 352 352 350 349 349 349 350 351 351 351 352 351 350 351 349 347
357 359 357 356 353 353 354 354 353 350 348 347 345 346 346 344 342 341 340 341 341 337 333 336 332 330 342 338 335 334 336 343 337 338 343 342 347 347 345 343 344 346 348 349 351 353 350 346 351 346 350 354 355 355 354 355 355 355 355 355 354 354 354 354 353 353 353 353 352 351 350 350 349 348 348 349 350 350 351 351 351 350 349 347 347
358 359 358 361 355 354 354 353 353 351 349 348 348 347 346 345 343 345 338 334 332 334 334 331 328 328 329 329 331 335 342 341 335 337 340 342 342 343 343 343 342 346 345 346 347 346 345 345 346 344 345 345 350 355 355 354 355 353 352 353 353 354 354 353 354 352 352 352 351 351 349 349 347 349 348 349 349 349 349 349 350 351 350 345 343
359 358 359 358 354 353 354 353 352 351 350 349 346 351 347 342 337 334 333 330 327 332 334 329 324 322 325 325 328 327 337 335 335 333 336 337 338 339 341 342 343 343 344 343 342 343 343 344 344 345 344 345 345 347 347 349 352 353 353 353 354 354 353 353 352 353 353 353 352 352 352 351 350 345 343 346 346 345 346 347 347 348 348 347 347
359 359 358 358 355 354 354 353 352 352 349 346 347 346 343 341 334 330 329 332 332 337 332 328 323 329 326 325 319 322 330 326 331 330 331 331 334 337 340 341 342 342 342 341 341 341 343 343 342 341 342 342 342 344 346 351 349 354 352 352 353 353 352 352 352 352 352 352 352 352 351 351 351 350 348 349 347 345 346 346 345 346 346 345 346
359 359 358 357 355 354 353 352 352 352 350 347 345 344 336 334 331 334 329 328 326 329 339 331 328 326 321 321 319 321 318 319 324 327 328 328 331 334 338 339 340 340 339 339 340 338 338 341 340 340 341 341 341 342 343 340 351 350 350 350 350 350 350 350 350 351 350 351 351 351 351 350 350 350 350 350 350 349 349 348 348 348 346 346 346
359 359 359 356 355 354 352 352 351 350 349 346 344 343 337 335 332 334 329 329 328 329 334 335 330 331 328 322 317 318 317 319 322 321 326 325 325 328 338 338 338 338 338 337 335 333 335 337 339 340 340 340 340 340 340 343 339 348 341 349 347 346 347 347 349 350 347 346 346 346 346 346 346 346 345 346 346 346 347 349 349 348 348 347 347
358 359 359 356 354 353 352 351 350 349 348 344 342 336 335 334 333 333 329 329 329 329 327 336 338 341 330 324 321 318 320 321 317 316 325 328 327 329 331 335 334 338 334 333 332 333 337 335 336 340 341 340 339 339 339 338 343 336 331 333 344 345 346 345 345 345 344 344 343 343 343 342 342 342 341 342 342 342 344 344 344 346 347 348 348
358 358 358 356 353 353 352 351 350 349 349 340 337 336 336 335 336 333 332 338 330 327 327 328 327 331 335 334 338 333 327 322 316 316 316 319 322 323 326 327 330 332 333 331 332 330 332 334 333 338 340 340 340 339 338 337 346 343 346 346 344 345 346 345 345 344 343 343 342 341 340 341 340 339 340 340 340 341 341 342 342 342 343 344 345
358 358 358 355 353 352 352 351 349 347 348 339 337 336 336 335 339 335 335 338 332 330 328 327 325 326 341 332 334 332 327 324 322 320 317 315 316 320 322 325 327 327 331 332 331 330 330 331 329 334 340 340 340 339 340 337 335 335 342 343 344 344 344 346 345 344 343 342 342 341 341 341 340 340 340 341 340 340 339 340 341 341 341 340 341
357 357 357 355 355 352 351 350 348 345 350 340 337 337 336 335 336 334 335 335 332 332 330 329 325 326 328 326 326 325 324 327 327 324 318 313 313 315 317 321 324 324 325 328 329 329 332 331 331 334 342 343 341 340 340 339 336 334 340 342 344 345 344 345 346 346 343 342 341 341 341 340 340 340 340 340 340 340 339 339 340 341 341 340 341
355 356 356 355 354 352 350 348 347 344 348 340 337 336 336 336 337 336 335 333 333 334 332 330 329 327 329 326 325 323 321 321 320 317 318 315 314 315 316 318 317 320 324 325 326 327 328 329 330 333 335 339 341 340 339 338 337 337 337 342 344 346 345 346 345 345 342 342 342 341 339 340 339 338 338 338 339 340 340 340 339 340 340 340 340
354 355 355 354 353 352 350 348 346 346 348 338 336 336 336 337 337 336 336 334 335 333 338 332 332 331 327 326 326 322 321 319 319 320 319 315 316 317 318 319 318 317 322 326 328 325 326 327 325 329 331 335 338 339 339 337 342 341 342 342 344 347 347 346 345 344 344 343 343 343 342 340 339 339 338 338 338 338 339 338 339 340 340 340 340
353 353 353 353 353 351 350 347 345 343 344 339 336 337 337 337 336 335 335 335 335 335 335 332 330 330 329 326 326 325 324 321 322 323 320 318 319 317 318 320 320 320 323 325 327 326 325 326 326 327 329 331 334 337 337 337 337 343 342 343 344 345 347 346 347 345 345 343 343 344 343 342 341 339 338 339 339 338 337 337 337 338 338 338 339
351 351 352 352 351 349 347 345 343 342 343 340 336 337 337 336 335 335 334 334 333 333 332 332 332 330 331 329 327 326 325 326 325 324 321 322 320 317 318 318 316 318 321 323 324 326 327 326 327 326 328 328 331 332 333 334 332 338 343 341 342 342 344 345 344 343 343 342 342 344 343 343 342 341 340 340 338 337 336 335 335 335 335 335 336
351 351 352 351 351 350 349 346 344 342 342 341 337 337 337 336 336 335 334 334 334 333 333 333 331 331 330 329 328 329 328 329 326 324 322 321 318 319 319 319 317 318 319 322 324 324 325 328 329 328 328 328 329 329 330 331 333 339 342 341 337 339 341 342 343 342 341 341 340 341 341 343 342 342 341 341 341 339 338 338 337 338 337 336 336
351 352 352 350 350 349 348 346 344 342 342 341 339 337 338 337 337 336 336 334 333 334 332 332 331 330 328 328 330 328 328 330 329 325 324 324 322 321 322 318 318 315 319 318 317 321 322 323 328 329 330 331 330 329 329 329 335 340 342 341 338 340 339 339 340 341 340 339 339 339 340 341 342 342 343 343 344 343 342 342 341 340 340 338 337
351 351 351 350 348 348 348 346 345 343 342 341 338 337 337 336 335 336 335 338 333 333 333 331 331 330 331 328 328 329 329 329 330 328 326 325 325 325 324 321 317 315 313 317 316 319 321 324 324 327 329 330 331 332 336 336 332 340 344 339 336 337 339 339 339 339 338 338 338 338 338 339 340 342 343 343 342 341 342 343 342 342 341 341 340
351 351 350 350 348 348 347 346 345 344 342 341 339 337 336 336 336 335 334 336 335 333 333 331 331 331 330 329 328 328 328 329 330 329 328 326 326 326 325 323 320 315 312 313 314 317 321 325 323 324 329 329 330 330 333 333 336 338 333 334 335 335 336 336 336 336 337 337 337 336 336 337 337 338 340 341 341 341 342 342 342 342 341 341 341
351 351 350 349 348 351 346 345 344 344 342 341 339 337 336 336 336 335 336 335 335 334 334 332 331 331 332 330 329 328 330 329 329 330 329 328 326 326 324 323 322 319 315 314 314 316 319 322 323 323 326 329 330 331 331 330 340 341 336 333 333 334 335 336 336 336 336 336 335 334 335 335 336 337 337 337 337 338 340 341 341 341 341 340 341
350 349 349 348 347 347 346 345 344 343 342 340 338 337 336 335 335 335 335 334 334 333 333 333 331 332 330 329 327 327 328 329 328 329 330 330 327 326 325 324 323 322 319 316 312 316 322 322 323 325 325 326 329 330 329 330 336 338 334 332 332 336 338 336 335 334 334 334 333 333 332 332 333 334 333 334 335 336 337 338 339 340 340 340 340
349 349 348 348 347 347 346 345 344 343 342 340 336 335 335 335 335 335 334 334 333 333 333 333 333 331 330 329 329 328 328 328 327 328 329 330 329 327 327 325 323 322 321 317 315 316 320 322 322 324 326 326 327 327 326 328 332 339 332 331 332 340 335 333 337 335 334 333 332 332 331 330 330 331 332 333 334 336 337 337 337 337 337 337 337
349 348 348 348 347 347 346 346 344 343 342 340 337 335 334 334 334 335 333 333 333 333 333 332 333 331 330 329 329 329 329 329 328 329 330 330 329 329 329 326 325 323 323 321 318 319 319 320 323 325 325 327 325 325 326 326 328 328 334 331 332 331 331 331 331 334 334 332 331 331 331 330 330 330 331 332 333 335 336 337 336 335 334 334 334
349 348 348 348 347 347 346 345 345 344 343 341 338 335 334 333 333 334 333 333 333 332 331 331 331 332 331 329 329 329 330 329 328 329 331 331 330 328 327 328 326 326 325 324 320 318 319 319 321 323 325 326 326 324 326 326 327 329 328 328 328 329 330 330 330 330 334 332 330 328 328 328 329 329 330 330 331 332 333 334 333 331 331 331 330
349 349 348 347 347 347 346 345 345 344 342 341 339 336 334 333 333 333 334 333 332 332 331 331 330 331 330 330 330 330 331 329 328 328 330 330 330 329 329 329 328 327 327 325 322 320 319 320 319 320 321 324 325 327 326 328 329 328 327 329 330 331 332 331 330 330 334 332 330 329 329 328 328 328 327 329 329 328 329 328 327 327 326 326 326
348 349 348 348 347 346 345 345 344 344 342 341 339 337 335 334 333 333 333 333 332 332 332 331 330 330 330 330 330 330 330 329 328 327 328 330 329 330 328 329 329 328 328 328 325 324 322 321 319 322 322 323 325 326 329 329 328 329 328 329 329 330 330 331 329 329 331 331 330 329 329 328 328 327 326 326 325 324 323 322 322 323 323 323 323
349 348 348 348 347 346 345 345 344 343 342 341 339 337 336 335 334 333 333 333 332 332 332 332 335 331 331 331 331 330 329 328 327 327 328 328 328 328 328 327 328 328 329 329 328 325 322 322 321 321 322 323 324 325 326 326 327 326 326 327 329 329 329 329 329 330 332 330 331 330 329 328 328 328 327 326 325 323 322 322 321 321 320 320 320
349 349 348 347 347 346 346 345 345 344 343 341 339 338 337 336 335 333 333 333 333 332 332 331 333 333 332 331 331 330 329 329 328 327 327 328 328 327 327 327 328 329 327 327 329 327 325 324 323 323 323 324 323 325 326 326 326 326 327 328 327 326 325 326 327 328 329 329 329 330 330 329 329 328 327 326 324 323 323 322 321 320 319 317 315
349 348 348 347 347 346 346 346 345 344 343 341 339 338 337 336 335 334 333 332 332 332 332 332 332 333 333 332 331 331 330 329 329 328 328 328 330 328 328 328 327 327 327 327 328 327 326 325 324 322 323 324 324 324 326 326 325 326 325 325 325 324 322 323 325 326 327 329 330 332 331 331 330 329 322 321 323 324 323 322 321 320 320 319 316
350 349 348 348 347 347 346 345 345 344 343 341 340 338 337 337 336 335 334 333 332 332 332 332 332 332 333 333 333 332 331 331 330 330 330 329 330 329 329 329 328 327 327 327 327 326 325 324 324 324 322 321 324 326 325 323 322 321 324 324 322 323 324 321 322 324 324 325 326 326 328 328 327 326 323 324 325 325 324 324 325 325 324 320 318
350 350 350 349 347 346 345 345 345 344 343 342 341 339 338 337 336 336 335 334 333 333 332 332 332 333 333 332 332 333 334 337 339 338 336 335 330 329 329 330 329 328 327 327 327 326 325 325 324 323 322 323 324 324 323 322 321 322 322 322 322 323 323 322 323 323 325 324 323 324 324 323 322 323 323 322 322 325 324 326 325 326 324 318 318
350 350 350 349 348 347 345 344 344 344 343 342 336 328 331 338 337 336 336 335 334 333 333 332 332 333 333 333 335 340 340 342 342 342 340 339 338 334 331 330 330 328 327 326 325 325 325 324 324 324 323 322 324 324 323 323 324 323 321 319 319 321 318 319 320 320 323 322 320 320 321 321 321 320 319 318 320 322 320 320 319 321 322 320 320
350 349 349 348 348 348 346 345 343 343 344 342 329 326 327 331 337 336 335 335 334 334 333 333 332 333 334 334 333 338 341 343 342 344 342 341 340 339 337 335 335 331 328 325 325 326 326 324 324 323 321 322 323 324 324 324 324 323 322 321 320 319 318 315 316 320 320 321 317 314 318 318 318 316 317 318 318 319 319 319 323 323 320 320 319
350 350 349 348 348 348 347 346 344 343 343 332 327 325 326 327 331 338 336 335 335 334 334 334 334 333 333 333 334 334 336 338 338 340 343 342 338 337 336 335 334 334 331 328 327 325 325 325 323 323 322 322 323 323 324 322 322 321 321 320 319 319 317 314 313 315 318 321 315 313 316 318 316 316 316 317 318 319 319 320 321 321 320 319 318
350 349 349 348 348 348 347 346 345 345 344 331 325 324 325 325 327 333 337 336 336 335 335 335 334 334 334 333 333 333 334 342 341 337 337 340 339 333 335 335 333 329 327 327 328 330 327 325 324 324 324 324 323 325 326 323 320 319 317 316 316 316 317 315 316 316 321 318 314 311 312 315 314 315 314 317 318 318 319 321 320 320 319 318 317
349 349 349 348 348 347 347 346 346 346 344 330 323 321 322 323 325 330 338 337 337 337 336 335 335 334 334 333 332 332 332 334 336 336 336 336 338 337 332 331 331 333 329 327 326 327 329 328 326 325 327 327 326 327 329 324 321 321 318 318 318 316 315 317 318 318 318 317 315 311 309 313 315 315 314 316 318 318 318 318 318 317 317 316 315
349 348 348 348 348 348 348 348 347 346 346 328 320 319 319 320 323 326 338 338 337 337 337 336 335 335 334 334 333 333 332 331 334 336 335 335 332 330 330 329 330 331 330 330 330 330 330 329 329 329 329 330 329 328 327 323 324 324 323 322 321 319 317 313 312 312 314 316 313 311 309 310 312 312 314 315 316 316 314 313 313 314 314 313 313
350 350 349 349 348 347 348 348 347 345 347 324 319 318 318 319 322 331 336 337 337 337 336 336 336 335 335 334 333 333 332 332 335 333 335 332 329 327 328 329 329 329 330 332 329 331 332 331 330 330 330 331 329 329 328 326 324 323 323 319 315 314 312 310 310 310 313 315 316 313 308 308 311 311 312 311 309 307 308 308 311 312 312 312 313
349 348 349 349 349 348 347 347 346 346 345 323 317 316 317 318 321 333 335 336 337 336 335 336 335 334 335 334 334 333 333 332 329 324 329 336 328 326 326 327 325 325 327 329 327 325 325 323 322 323 324 322 319 317 316 316 321 319 314 312 312 310 310 308 309 309 310 312 313 314 311 309 310 308 308 306 308 308 308 308 309 312 312 311 311
348 349 349 349 349 349 348 347 347 346 344 322 315 314 316 316 322 334 335 335 335 335 335 334 333 334 336 342 339 333 332 330 321 321 325 330 327 326 325 325 325 324 325 329 330 330 323 321 321 319 318 318 318 316 315 314 313 316 314 311 312 310 310 309 306 309 310 313 315 316 306 305 305 303 304 303 307 306 307 307 309 311 313 310 310
350 350 349 348 348 348 348 348 341 344 343 323 313 315 315 315 323 335 335 335 334 334 334 332 333 333 333 340 342 336 332 325 317 320 322 327 328 327 326 325 324 324 325 327 328 326 323 323 319 321 321 322 322 321 325 321 318 318 317 316 312 311 311 310 310 307 305 307 312 312 306 302 303 302 303 301 300 303 306 308 310 309 310 311 312
Wind_Speed
5 5 4 5 5 5 4 5 4 5 3 4 3 4 3 3 3 3 2 0 1 2 1 1 2 2 2 4 3 3 3 4 3 3 3 4 3 3 9 10 11 12 13 12 13 13 12 13 13 12 12 12 11 11 10 10 10 11 10 10 9 9 9 9 9 9 8 9 7 9 8 8 8 8 8 8 8 8 8 7 7 7 7 7 6
5 4 5 5 5 4 4 5 5 4 3 3 3 2 3 2 2 3 1 2 2 1 0 2 2 3 2 3 3 2 5 5 5 4 4 4 3 2 9 10 11 11 10 8 11 12 13 13 13 13 12 12 12 11 10 10 10 10 9 9 11 11 10 10 10 10 10 10 9 7 9 8 8 9 9 8 8 9 10 9 9 8 8 8 7
5 5 4 5 5 5 5 4 5 4 3 4 2 3 2 4 3 2 1 2 2 2 1 2 2 1 0 0 1 2 2 3 3 4 4 4 4 3 5 11 11 11 10 12 11 11 11 11 11 11 11 11 11 9 10 11 9 7 7 8 10 9 11 11 11 11 11 10 10 10 10 9 9 9 9 9 8 8 9 10 10 9 9 9 8
5 4 5 5 5 5 5 5 5 4 4 4 4 3 3 3 1 1 0 0 1 2 3 2 1 1 1 0 0 1 3 3 4 4 4 3 4 4 3 4 10 10 10 10 11 9 10 11 10 10 11 11 11 10 8 9 7 7 10 11 10 9 9 10 10 11 11 11 10 10 9 10 10 10 9 8 10 10 9 8 10 9 11 10 9
5 6 5 5 5 5 5 5 5 5 4 4 3 3 1 1 2 1 1 1 1 3 1 1 1 1 1 1 2 0 3 1 2 3 4 4 4 4 3 1 1 7 9 8 9 11 13 10 10 11 11 11 9 9 8 10 8 8 5 6 6 6 6 8 10 9 9 9 9 9 10 10 10 10 10 10 10 10 9 11 12 11 12 11 11
5 5 5 5 5 5 5 5 4 4 3 3 3 2 2 2 2 1 2 1 2 3 3 3 3 2 1 2 1 2 1 1 3 4 3 3 2 2 3 2 2 0 2 7 7 9 10 9 9 10 10 10 7 8 9 11 7 5 7 8 10 9 9 9 8 7 9 10 8 9 8 10 10 10 10 10 10 11 11 11 11 12 12 11 12
6 6 6 5 5 5 5 5 4 3 4 3 4 2 3 3 1 2 3 2 1 2 2 2 2 3 3 2 2 1 2 2 3 3 3 3 3 3 2 2 2 1 1 0 5 7 7 9 9 10 10 10 11 12 9 5 6 11 9 10 11 11 10 10 10 6 5 7 8 8 9 8 9 10 9 8 11 11 10 11 12 12 11 12 12
5 5 6 5 5 5 5 4 4 3 4 3 2 4 3 3 2 2 1 2 1 1 2 3 1 2 1 1 2 2 2 2 3 4 3 4 4 3 2 2 2 2 4 2 1 2 5 6 7 8 9 10 7 6 5 10 13 11 10 11 12 12 10 10 10 8 7 7 8 8 7 8 9 9 10 10 12 11 10 10 11 13 13 12 12
5 6 6 6 5 5 5 5 4 4 4 3 3 4 3 3 2 1 2 1 0 1 2 2 2 3 1 1 0 1 3 3 3 3 4 3 3 3 2 2 2 5 2 3 2 1 4 5 6 7 6 7 2 7 8 9 11 11 10 11 12 13 12 10 10 9 8 9 9 10 9 10 11 9 10 13 14 11 11 12 12 13 13 14 13
6 5 6 6 6 6 4 4 4 4 4 3 5 2 2 2 3 2 1 1 1 0 0 1 3 3 2 2 1 4 3 2 3 3 5 4 3 3 3 1 2 1 3 3 3 3 2 4 6 6 5 4 2 5 6 4 7 8 10 11 10 11 11 11 12 11 9 10 11 11 10 11 9 7 10 15 17 14 11 11 13 13 12 11 10
6 6 6 5 5 4 4 4 4 4 4 4 3 3 2 1 2 2 1 2 2 2 1 0 2 3 1 2 4 2 3 2 2 4 3 4 4 3 1 1 1 1 2 2 3 3 3 1 0 1 1 2 3 3 4 7 7 8 10 10 11 14 12 11 9 9 11 11 12 9 11 12 9 8 12 14 15 13 12 13 13 14 14 11 10
6 6 6 5 5 5 5 4 4 4 4 4 4 4 4 3 3 2 3 1 1 1 2 2 1 3 2 2 2 2 3 1 1 4 3 3 3 2 2 1 0 0 0 1 1 2 2 2 2 2 1 1 2 1 2 3 3 3 4 5 5 6 8 10 9 9 10 10 10 8 10 9 9 8 12 15 15 13 12 12 13 14 12 11 9
6 6 6 6 5 5 5 4 4 5 5 6 5 5 4 3 2 1 2 1 1 1 1 2 2 1 2 2 2 2 2 2 2 3 4 3 2 3 2 2 0 0 0 1 1 2 1 2 2 2 2 2 2 3 3 3 4 4 4 4 3 4 5 5 6 6 7 8 9 9 10 10 9 9 13 14 11 10 11 10 12 13 11 9 12
7 7 6 6 5 5 5 6 5 5 5 4 3 3 3 3 2 1 1 2 2 1 1 2 1 3 2 1 2 3 1 2 1 1 3 3 3 3 3 3 1 0 0 1 1 0 1 1 2 2 2 2 3 3 2 1 2 3 3 3 3 3 2 2 4 3 4 5 6 7 8 9 7 5 12 13 10 11 12 11 11 10 8 9 13
7 7 6 6 6 6 6 5 6 5 5 4 4 4 4 4 4 4 1 0 1 1 2 2 2 1 1 2 1 1 1 2 3 3 2 3 4 4 3 3 2 0 0 1 0 0 0 0 1 2 2 2 3 3 2 3 2 3 3 3 2 2 3 3 3 2 2 2 2 2 3 3 3 11 15 11 10 9 10 11 10 10 9 12 14
8 7 6 6 7 7 6 5 6 6 6 6 5 4 3 3 3 3 3 1 1 1 2 3 3 5 0 1 1 2 0 1 1 1 1 1 2 4 3 3 2 1 0 2 1 0 1 1 1 0 1 1 2 2 2 1 2 2 2 2 2 2 1 1 2 2 1 2 3 3 3 2 3 2 1 3 7 9 9 11 10 9 10 12 12
8 8 7 7 6 6 6 6 6 6 5 5 6 6 5 5 5 4 4 4 2 1 1 1 3 1 5 3 1 0 2 1 2 1 3 2 2 1 1 3 3 2 3 3 0 2 2 1 0 1 1 1 2 1 1 0 1 0 1 2 2 3 2 3 2 2 1 1 0 1 1 1 1 1 1 1 2 2 2 3 2 2 7 10 11
7 8 7 6 7 7 6 7 6 6 6 6 5 4 4 4 5 5 4 3 4 2 1 0 1 1 2 1 4 3 3 1 3 2 1 1 1 2 1 1 1 3 3 2 2 3 1 2 1 1 1 2 2 1 1 1 0 0 1 2 3 3 4 3 3 3 3 2 2 1 1 0 0 1 2 2 3 2 3 2 3 3 4 3 6
7 7 7 7 7 6 7 7 7 6 5 5 5 6 6 6 4 3 5 4 3 3 4 4 1 0 2 0 1 0 5 5 3 3 3 2 2 1 1 0 0 1 3 3 3 3 3 1 2 2 2 3 2 3 2 2 3 3 4 5 5 5 5 5 5 5 4 4 3 3 3 3 2 2 2 3 3 2 2 3 3 3 4 4 4
7 7 7 7 7 7 7 6 6 6 6 6 7 6 5 3 4 5 4 4 6 6 5 3 5 2 0 1 2 2 1 2 4 7 5 5 1 2 1 1 0 3 3 4 4 5 4 3 3 3 4 3 3 3 3 3 3 2 3 6 7 6 6 6 7 7 6 5 5 4 4 4 4 4 4 4 4 3 3 3 4 3 4 4 4
7 7 7 8 8 7 7 6 6 6 6 6 5 5 6 6 4 3 4 4 4 4 5 5 3 4 1 1 2 2 3 3 2 3 3 4 2 3 2 1 0 3 5 3 4 3 4 4 2 3 3 4 3 3 3 3 4 3 4 7 8 8 8 7 7 8 7 6 5 5 5 5 5 5 5 5 5 5 5 5 5 5 5 4 3
6 6 7 7 8 7 7 8 7 7 6 7 6 5 5 5 6 6 5 5 4 5 6 6 5 3 3 4 2 1 2 1 2 3 3 2 6 6 4 6 4 5 3 5 5 5 4 3 2 2 4 4 4 4 3 4 3 3 5 9 9 10 9 9 8 9 8 7 7 7 7 6 6 6 6 6 6 6 7 6 6 6 7 7 6
7 7 8 7 7 7 7 7 7 7 7 6 7 7 6 6 6 5 6 6 5 5 4 4 5 4 3 5 6 6 5 4 4 2 2 2 2 2 1 4 6 4 6 5 5 5 3 3 3 4 4 5 4 4 5 5 5 5 8 8 9 9 9 9 9 9 8 8 9 9 9 9 8 8 8 8 8 7 7 7 7 7 7 7 7
7 7 8 8 7 7 7 7 7 7 7 7 6 6 6 5 6 6 6 6 5 5 5 5 4 5 5 5 5 5 4 3 5 5 6 4 6 5 4 2 0 3 3 3 3 3 4 5 5 5 5 5 5 4 4 4 5 10 7 9 10 10 9 10 9 9 9 9 9 10 10 10 10 10 10 10 10 9 8 8 8 8 8 8 7
8 9 9 10 8 8 7 7 7 7 7 6 6 6 6 6 7 7 7 7 7 6 6 6 7 6 7 5 5 4 6 3 5 5 2 4 6 5 1 1 2 2 1 0 3 3 5 6 5 5 4 4 4 5 5 5 5 8 10 7 11 10 11 11 10 10 10 10 10 10 10 10 10 10 11 12 12 11 11 10 10 9 9 9 8
10 10 9 10 9 9 9 8 8 7 7 7 7 6 6 7 7 7 7 7 6 6 7 6 5 6 4 5 4 5 5 4 4 6 5 5 4 6 4 1 1 1 1 1 1 1 3 4 5 4 3 4 5 5 5 6 6 9 12 8 8 11 11 11 11 11 11 12 11 12 12 11 12 12 12 12 13 13 12 12 11 11 11 10 10
10 10 8 10 10 9 9 9 8 8 7 7 6 6 6 6 6 8 7 6 7 7 6 6 6 5 4 5 5 5 5 5 5 5 6 7 7 6 7 5 0 1 1 2 3 1 4 3 2 4 6 5 6 6 6 5 7 10 10 7 6 10 11 11 11 12 12 12 12 13 13 13 12 13 13 13 12 13 14 13 13 12 12 11 11
8 8 9 10 10 10 9 10 9 9 8 8 7 7 7 7 7 6 7 5 7 7 7 6 6 5 5 4 3 5 4 5 6 5 6 6 6 6 6 6 7 4 1 2 2 3 1 3 1 3 3 4 5 5 6 6 6 9 10 5 5 6 9 11 11 12 12 13 13 13 13 13 13 13 13 13 14 14 13 13 14 13 13 12 12
8 8 9 9 10 10 10 10 10 9 9 8 8 7 7 7 7 7 7 6 6 7 6 6 6 5 4 5 6 5 4 3 3 4 5 4 5 6 7 8 7 6 3 3 4 5 4 4 3 2 2 2 3 2 3 4 5 4 3 3 4 4 8 11 12 12 12 12 12 13 13 13 13 13 13 13 14 15 15 14 14 14 14 13 12
9 8 9 11 10 11 10 10 10 9 10 9 8 8 8 7 8 8 8 7 7 6 6 6 6 5 4 4 4 4 3 3 5 5 5 6 5 6 6 5 6 7 5 5 6 5 4 1 2 1 1 1 2 2 2 3 4 4 3 4 4 5 9 11 11 11 11 12 12 12 13 14 14 14 14 13 13 13 14 14 14 14 14 14 13
9 9 10 10 10 10 10 10 9 10 9 9 8 8 8 8 8 8 7 7 7 7 6 6 6 6 5 5 3 4 3 5 4 3 3 5 6 5 5 5 5 5 6 5 3 4 3 3 4 3 2 1 1 0 1 2 3 3 3 3 4 7 9 7 9 10 11 11 12 12 12 13 13 13 13 13 13 12 12 12 13 13 14 14 15
10 10 11 11 12 12 10 11 10 10 10 9 9 8 8 9 9 8 8 7 8 8 7 6 5 6 6 5 5 6 4 3 3 3 4 4 4 5 5 5 5 4 5 5 5 5 3 4 3 3 3 2 0 1 3 3 3 5 3 3 3 5 3 3 6 9 10 11 11 13 14 14 13 12 12 12 13 13 13 13 12 12 13 14 14
10 11 11 12 12 12 12 11 11 11 10 10 8 8 8 9 9 9 8 8 9 8 6 7 6 6 6 6 6 6 4 5 5 4 4 5 3 4 4 4 5 3 5 4 4 6 4 2 2 3 2 0 2 2 3 3 4 4 3 3 3 4 4 4 4 7 8 9 10 12 13 13 13 14 14 13 13 13 14 14 15 15 14 13 13
11 12 13 11 11 12 12 12 12 11 11 10 9 9 9 9 9 7 8 9 10 9 7 8 7 6 5 6 7 6 5 6 5 5 6 5 5 4 3 5 5 5 3 4 4 3 6 2 2 2 2 2 3 1 4 4 4 3 4 4 3 3 4 5 5 5 9 11 10 10 11 12 13 13 13 13 13 13 13 14 14 15 15 15 14
11 12 12 12 12 12 12 12 12 11 11 10 9 10 10 11 11 9 9 10 10 10 9 9 7 6 6 7 7 6 4 5 5 5 5 6 5 6 5 4 5 5 4 4 4 4 4 5 2 2 2 1 3 4 2 2 3 3 4 5 5 4 3 4 4 4 7 10 12 12 12 12 10 9 9 10 11 12 12 13 13 14 14 14 13
12 11 11 12 11 12 13 12 12 12 11 11 10 10 11 11 11 11 10 10 10 10 10 8 7 7 8 7 7 6 5 6 5 5 5 4 5 6 5 5 5 5 5 5 4 4 4 5 2 3 2 1 3 3 4 3 4 5 3 5 4 5 5 5 3 4 6 9 11 12 12 11 11 10 11 10 8 9 10 11 12 13 13 13 13
12 11 10 10 11 12 13 14 13 12 12 11 11 11 10 10 11 11 10 9 9 9 8 7 8 9 9 9 8 6 6 6 5 5 5 5 4 5 6 6 6 5 3 5 5 4 4 6 4 2 1 0 1 2 2 4 4 3 3 4 5 5 6 6 4 4 6 9 9 9 8 7 8 10 10 9 9 8 8 8 9 10 11 12 12
13 12 12 11 12 13 13 13 12 12 11 12 12 12 11 11 10 10 9 9 8 8 7 7 8 8 9 9 7 7 7 8 7 5 5 6 5 5 6 5 5 4 4 4 5 6 6 6 5 4 0 1 2 3 2 1 3 5 6 6 5 4 4 7 7 4 3 3 5 7 7 7 9 11 11 11 11 10 9 10 10 9 8 9 10
13 13 12 13 12 13 13 11 12 12 12 11 11 11 11 11 11 11 9 8 8 8 7 8 7 8 8 8 7 7 8 8 7 7 7 6 6 6 7 7 5 5 5 5 5 6 6 6 4 3 3 1 1 4 1 0 2 3 4 6 7 4 3 4 7 4 2 4 6 8 7 7 9 8 9 11 11 12 11 10 10 10 10 11 10
14 14 14 14 12 11 11 11 11 10 11 11 11 11 11 11 10 10 9 9 8 8 7 7 7 8 8 9 9 8 9 9 9 8 8 8 6 7 6 5 5 5 5 5 5 5 5 5 5 5 1 1 5 3 0 1 2 4 4 5 7 7 6 3 4 4 2 2 5 6 6 5 5 7 9 9 11 12 12 11 11 12 12 12 12
12 13 12 12 11 11 11 11 11 10 11 12 11 12 12 11 10 9 9 9 9 9 8 8 7 8 8 9 9 8 8 10 11 10 9 9 7 7 6 6 6 6 6 6 5 5 5 4 4 1 2 3 6 7 5 3 4 7 3 3 5 6 6 6 5 4 5 5 4 4 5 2 3 5 5 6 8 9 9 10 9 11 12 12 12
12 11 11 11 12 13 12 11 11 10 11 10 13 18 15 11 10 9 8 8 9 8 8 8 8 8 10 9 8 11 13 14 14 14 14 14 13 10 9 8 8 8 7 7 6 5 5 6 6 5 5 5 7 4 2 3 4 3 4 3 5 6 3 5 6 4 4 4 3 5 5 2 3 4 5 6 7 6 6 6 7 8 10 13 13
13 12 12 12 13 12 13 12 12 12 11 11 16 16 17 17 11 9 9 8 8 8 8 9 10 10 8 8 6 9 12 12 12 16 15 15 15 14 13 13 11 10 9 7 7 6 6 7 6 5 4 5 5 3 4 6 4 5 5 3 5 4 4 4 6 6 1 4 2 1 6 1 0 4 6 7 6 6 6 7 9 11 12 13 13
12 11 12 13 13 12 11 12 13 13 12 14 16 16 17 17 15 11 8 8 8 9 9 10 9 8 8 8 7 6 7 9 8 9 12 15 16 15 14 13 14 11 6 8 7 6 7 6 5 5 3 4 3 3 5 3 6 4 5 4 4 5 5 4 3 5 3 1 1 3 7 5 1 4 6 7 7 6 7 9 10 11 12 13 13
11 12 14 13 14 13 13 13 14 13 12 13 15 16 16 17 18 14 9 10 10 10 10 10 10 9 8 7 7 6 6 11 9 7 7 9 13 16 14 12 9 12 13 12 10 9 8 6 5 6 6 4 4 4 4 3 2 3 3 3 3 4 4 5 5 4 6 0 1 3 5 6 3 4 6 7 6 6 7 8 10 11 12 13 13
12 14 13 15 14 13 13 13 13 12 12 12 16 16 17 19 19 16 11 11 10 10 10 10 9 9 10 9 8 7 6 6 6 7 6 7 7 7 6 8 8 11 13 15 13 13 11 8 6 7 5 5 6 5 5 2 2 4 3 5 4 4 4 6 4 4 4 1 3 2 4 6 5 5 6 7 5 6 6 8 10 11 13 14 14
14 15 15 15 14 14 14 13 12 11 11 13 16 18 19 20 20 17 12 10 9 9 10 10 10 10 9 8 8 8 6 7 7 8 7 7 6 7 8 8 9 10 10 9 9 8 5 2 4 4 4 4 5 6 4 3 4 5 4 5 4 3 3 1 3 3 5 3 3 2 5 4 3 4 6 6 6 6 6 8 11 13 14 14 13
13 12 12 13 14 13 13 13 12 12 9 16 18 19 20 20 21 13 11 11 10 9 8 8 10 9 8 8 8 8 7 7 9 12 9 7 7 7 8 8 8 7 8 8 9 9 8 6 6 5 6 7 5 3 3 3 3 3 1 0 0 0 1 3 5 3 3 3 3 3 2 3 4 3 5 5 3 7 7 5 9 14 14 13 13
14 14 14 14 12 13 14 13 13 12 8 14 19 20 20 22 16 11 11 10 10 9 9 9 7 6 6 7 7 7 7 7 8 11 12 11 7 7 7 6 0 3 4 1 3 3 9 10 10 10 5 3 4 6 6 8 4 2 2 1 4 1 2 4 3 2 5 2 2 5 3 4 4 4 5 3 4 7 7 7 7 10 12 12 13
15 15 13 12 12 13 13 13 14 11 8 13 20 21 22 22 18 13 11 9 9 9 8 5 5 6 7 13 9 7 7 6 10 13 14 11 7 7 4 0 4 7 4 2 4 5 4 2 1 1 3 4 5 6 6 4 4 4 4 3 3 2 3 3 4 3 4 4 5 3 2 5 3 1 3 4 4 4 5 6 8 9 10 9 12
14 12 12 12 12 11 12 13 14 14 9 12 20 21 22 22 18 11 10 9 10 9 7 5 5 6 5 8 12 10 8 9 14 15 16 11 8 8 6 7 9 7 7 7 5 4 3 4 3 2 1 2 1 1 0 2 5 6 5 5 4 4 4 5 5 2 2 4 4 4 3 3 3 4 2 3 3 6 4 6 7 6 6 7 8
Wind_Direction
219 225 217 224 234 237 232 237 236 246 249 254 223 222 232 237 250 256 263 309 41 18 42 329 301 293 228 244 228 176 179 214 211 188 203 214 215 245 215 205 211 215 216 209 202 200 198 198 199 201 202 202 203 198 199 212 207 206 205 207 203 202 205 209 211 215 219 223 214 227 227 225 222 225 228 231 236 241 242 237 238 241 241 242 233
221 222 206 225 228 231 233 238 232 243 224 235 226 201 211 227 250 258 296 5 37 329 53 298 307 306 268 243 254 208 174 193 209 193 197 208 201 217 226 204 208 217 214 220 225 204 205 203 198 201 204 203 204 205 196 215 219 208 211 224 207 208 209 208 213 216 221 224 217 223 235 241 240 236 234 241 244 246 250 248 247 243 243 246 247
220 215 215 219 217 218 227 226 231 227 207 226 211 208 206 210 218 241 2 10 347 314 289 284 273 208 248 166 315 307 215 182 174 193 195 198 183 196 233 213 210 211 211 210 217 226 213 213 204 205 204 208 207 204 202 209 218 215 221 231 236 232 218 213 213 217 220 223 225 220 222 231 234 244 244 242 239 250 257 262 261 249 247 249 249
218 217 212 216 215 212 215 204 217 211 204 211 206 209 205 238 273 312 75 104 316 294 265 274 308 318 18 56 343 270 247 184 182 191 197 183 185 193 217 223 210 210 213 214 209 221 232 218 216 213 207 210 211 203 202 211 200 222 220 221 230 226 244 244 225 225 224 226 226 229 233 233 236 239 245 254 255 237 248 267 258 267 271 260 254
216 215 214 207 206 204 203 209 210 202 204 209 199 193 209 295 305 339 345 26 9 318 317 335 346 327 9 204 164 217 270 164 178 176 195 188 182 191 192 203 223 216 214 217 215 210 216 218 216 219 218 215 210 206 196 220 205 215 239 239 242 248 250 252 244 247 246 246 244 248 241 237 237 241 241 242 248 260 241 219 247 258 257 261 261
212 218 210 202 201 197 199 209 208 204 200 189 189 180 196 219 252 333 313 17 12 312 360 352 331 346 334 330 19 128 248 143 157 178 166 163 152 182 173 170 157 262 225 219 220 220 219 220 223 223 224 224 203 222 202 227 217 225 206 228 240 248 248 246 241 249 248 249 247 245 260 259 254 250 248 250 251 250 251 256 254 248 247 253 260
209 203 200 194 192 198 204 209 198 192 187 191 183 189 186 213 220 263 296 357 26 319 358 324 328 315 316 325 345 8 73 137 149 127 130 131 131 190 173 164 125 148 168 236 224 225 231 221 224 228 230 229 212 212 204 189 231 235 228 224 230 237 241 242 244 252 266 264 256 250 248 248 252 256 257 263 263 260 265 271 262 252 255 254 254
199 188 185 189 189 195 206 200 197 179 185 179 176 192 202 217 237 176 283 323 12 342 344 357 352 257 215 3 344 36 17 90 107 108 115 123 153 198 171 164 159 164 193 160 191 244 235 244 235 233 239 239 230 243 191 198 215 218 222 235 238 235 235 235 233 234 244 256 253 250 251 254 254 255 254 250 250 252 264 279 283 283 268 259 256
193 185 178 184 189 198 204 194 186 182 178 183 192 199 187 213 241 211 174 250 50 320 20 340 331 344 350 37 337 52 28 26 95 121 119 128 165 201 196 199 201 205 168 155 162 209 228 233 244 243 247 255 177 219 212 208 214 209 224 233 238 241 239 234 232 229 233 240 251 253 253 252 254 257 264 269 261 246 235 247 261 274 282 280 277
191 184 186 188 189 194 196 183 178 179 179 179 202 194 207 191 234 268 190 153 229 238 9 323 348 5 341 358 13 35 28 20 118 129 135 146 175 204 210 206 239 212 169 165 176 185 197 218 229 230 235 242 206 194 220 209 238 205 225 233 233 256 255 244 241 236 236 239 244 246 248 257 266 275 259 255 262 262 244 249 259 263 270 276 290
193 185 184 187 184 191 184 185 179 175 171 183 191 202 211 194 211 269 276 186 197 217 155 201 12 340 2 332 40 351 26 1 79 128 164 170 179 197 177 182 230 227 177 169 174 177 177 162 102 52 32 256 235 203 186 203 208 215 219 214 217 216 234 245 235 239 240 247 251 256 266 266 260 266 268 267 262 266 266 259 257 262 266 269 291
195 191 191 183 174 180 184 176 177 166 173 184 205 205 210 212 235 215 267 278 171 175 147 131 38 27 358 359 31 6 49 85 50 148 167 162 154 136 135 64 49 359 88 143 149 149 150 135 127 106 94 130 218 195 178 178 174 174 202 224 221 226 211 216 225 230 238 242 252 245 256 262 276 267 269 272 265 267 276 277 267 265 267 275 271
195 190 194 188 180 177 175 175 174 178 184 200 200 206 208 197 196 190 208 230 296 153 167 117 104 311 13 7 339 9 22 109 135 170 165 151 143 134 116 111 73 65 21 68 116 127 126 126 123 126 121 98 81 121 145 151 165 171 182 203 221 222 227 208 224 232 240 235 247 245 245 251 251 253 253 260 275 281 279 280 278 268 260 255 274
194 195 191 182 175 178 180 181 177 190 197 198 196 200 191 181 148 122 35 181 229 242 194 109 16 168 168 300 341 343 16 46 74 213 147 146 143 142 160 149 153 8 28 61 58 70 108 150 147 132 120 102 98 86 89 115 164 178 191 206 216 209 198 198 203 217 238 247 243 250 251 255 236 251 280 265 254 264 271 275 277 294 303 285 253
196 194 186 184 183 179 187 181 186 184 186 197 198 198 182 185 172 165 197 40 262 277 176 153 181 140 114 103 268 113 316 14 12 40 101 149 149 167 166 150 159 143 329 89 58 331 158 112 164 140 141 132 119 110 114 123 154 134 106 97 85 131 159 157 148 140 119 116 142 182 206 206 226 202 221 234 247 255 261 264 264 269 272 256 261
195 192 190 186 182 186 179 180 190 186 185 190 195 196 175 174 169 180 138 193 325 295 177 176 149 131 140 159 209 122 47 313 30 1 31 89 182 174 162 150 145 110 43 204 218 302 288 201 184 89 99 94 77 91 109 121 210 188 204 191 144 106 98 169 177 148 114 116 120 117 125 126 148 180 223 231 240 247 255 260 264 266 259 262 267
193 191 187 186 185 183 179 186 187 190 182 190 191 194 189 180 178 163 164 172 222 274 317 149 209 187 135 94 17 52 213 231 94 7 359 100 31 36 158 144 159 179 205 232 336 272 252 247 133 68 81 107 121 133 130 265 349 251 289 262 194 182 182 202 206 188 203 257 164 136 125 134 125 135 300 317 348 341 326 348 349 269 257 243 254
194 190 187 181 185 184 182 182 188 187 185 192 188 167 179 171 193 173 188 200 163 151 221 301 169 197 171 164 166 173 185 236 89 190 325 21 73 59 75 178 176 176 236 241 248 261 250 224 129 148 152 176 173 178 190 234 250 32 268 284 224 214 199 207 213 202 216 237 267 279 238 184 283 324 343 340 340 349 340 350 342 331 329 284 244
194 189 183 182 184 184 184 186 186 182 182 172 180 186 183 191 178 169 197 179 139 169 186 233 360 200 137 109 72 134 148 129 202 101 156 315 17 39 74 48 302 231 219 239 248 265 265 208 158 186 200 206 198 191 198 226 235 213 234 243 242 222 215 217 220 225 222 222 232 250 270 280 285 292 310 312 317 328 324 321 324 318 314 321 312
191 189 183 182 184 188 186 184 184 183 176 184 187 190 178 182 181 195 177 174 178 169 199 187 158 239 99 52 52 61 68 85 136 164 154 148 214 339 360 44 300 258 243 224 234 231 238 238 164 192 213 216 214 212 200 207 229 248 253 248 247 244 241 233 230 231 233 233 230 237 247 261 277 285 280 286 299 303 309 304 301 299 294 297 308
192 187 186 184 186 188 186 185 185 184 186 186 192 180 183 180 178 170 178 195 193 185 161 198 173 203 129 7 57 39 32 56 96 86 132 138 198 170 203 350 70 263 249 240 257 260 236 228 201 193 211 220 215 221 222 210 219 226 241 246 243 239 238 239 241 245 249 253 259 257 257 262 265 270 279 285 288 292 293 295 298 299 296 296 300
190 188 189 188 188 186 186 188 189 185 185 188 184 181 190 186 187 187 186 189 208 175 185 184 188 200 179 153 132 78 54 22 29 72 54 99 163 194 188 166 192 245 230 236 234 243 245 253 253 214 221 232 228 223 225 233 226 224 235 240 242 241 239 237 240 244 251 257 264 269 276 273 271 275 274 274 279 286 290 293 295 294 299 305 306
182 190 193 189 190 188 187 191 187 185 185 180 187 186 188 188 191 190 185 186 186 192 197 182 184 184 184 167 180 168 172 168 206 207 139 129 79 160 154 190 195 208 240 223 225 235 245 251 239 238 222 229 227 222 224 231 236 234 235 240 247 246 243 242 240 244 247 256 262 269 275 282 283 281 280 276 274 275 281 287 290 292 295 298 303
187 186 194 192 189 192 191 184 185 187 191 187 187 187 182 182 181 185 194 199 187 184 184 183 186 191 194 194 193 180 164 158 184 164 152 176 156 175 163 177 334 229 285 255 237 230 244 237 232 229 229 228 228 219 226 231 241 243 241 245 245 247 247 244 242 241 243 246 251 260 268 276 283 287 286 283 277 272 272 275 280 283 287 289 291
195 194 197 190 188 187 187 187 191 195 193 182 190 187 179 178 183 188 191 191 193 188 186 196 187 184 201 203 188 171 200 186 139 158 125 130 152 136 233 96 168 236 286 74 224 251 225 237 229 232 227 230 236 226 223 226 231 237 237 241 243 247 249 248 248 249 249 246 247 248 252 256 260 266 271 274 275 275 273 270 269 272 277 280 280
193 200 192 187 190 191 189 193 194 194 193 188 187 191 181 183 186 190 194 200 193 193 195 199 193 203 185 174 192 189 211 171 153 139 142 132 150 156 146 23 54 215 305 353 323 218 265 235 228 221 221 222 231 224 223 226 232 239 236 235 245 247 249 248 247 248 249 250 249 249 253 256 259 262 264 266 271 272 270 267 264 264 268 269 273
197 197 181 186 189 188 192 192 194 196 194 189 191 189 188 189 191 195 196 193 196 195 202 194 197 200 191 191 193 203 207 192 167 177 158 173 166 165 146 144 164 13 325 331 340 237 242 299 238 226 224 224 218 221 222 221 229 234 236 236 241 246 248 251 249 248 248 250 251 251 252 255 258 263 267 267 267 271 273 271 268 263 260 262 265
197 182 189 184 186 189 192 197 196 198 198 192 189 188 189 190 198 194 200 191 193 197 205 196 206 199 199 200 177 215 212 189 187 177 181 178 171 157 154 158 162 232 333 295 323 280 242 228 304 226 222 229 227 210 216 220 231 239 240 238 245 256 258 256 256 253 251 251 252 253 254 254 255 257 258 261 265 267 267 267 267 266 263 257 255
190 187 186 189 188 187 191 196 199 200 200 197 191 190 188 193 197 198 202 194 193 200 200 197 211 196 200 192 195 201 211 195 182 179 179 163 172 169 168 166 170 157 190 239 262 228 268 202 194 277 237 253 238 204 195 209 233 240 240 242 247 254 260 262 261 261 258 256 254 257 260 262 263 263 260 257 259 260 262 262 264 267 268 265 260
188 188 188 190 190 189 191 195 197 199 203 201 194 192 188 198 201 203 203 189 196 202 203 198 206 198 198 195 201 205 209 188 191 184 170 172 165 175 182 174 156 169 179 187 250 215 239 273 208 239 317 314 185 197 179 225 237 241 242 242 244 247 252 254 259 265 267 266 262 259 259 263 267 269 270 268 264 259 256 256 258 261 263 266 265
189 186 189 192 192 194 193 195 194 197 200 201 196 194 191 199 203 206 205 195 196 203 203 194 208 196 201 197 195 217 201 206 202 177 175 161 173 173 177 153 181 169 173 173 219 279 181 209 259 236 241 272 247 284 324 255 251 239 236 244 244 246 253 261 258 257 261 264 265 264 258 255 256 260 265 267 268 265 258 255 255 257 260 265 268
193 189 190 192 192 194 196 197 196 197 197 198 194 195 193 203 202 205 204 195 201 205 203 201 201 200 202 199 194 206 203 205 206 185 177 183 168 168 169 174 187 180 157 161 187 251 226 210 240 278 229 250 343 284 294 296 283 284 261 260 266 277 275 264 266 258 255 259 263 267 273 275 273 267 262 265 269 273 275 272 267 262 258 259 263
191 193 195 196 194 196 196 199 199 198 197 198 195 193 196 203 205 205 197 196 204 209 200 204 207 198 201 204 204 208 193 197 200 190 186 188 172 176 167 163 174 169 156 167 192 245 303 251 246 253 295 305 318 229 247 275 299 304 303 290 304 309 301 289 284 283 274 257 251 257 260 263 267 270 271 269 266 268 272 275 278 278 274 266 260
193 196 197 196 196 195 198 201 201 200 199 199 194 194 199 202 206 202 200 198 205 208 200 206 203 202 191 204 212 203 195 199 194 192 193 187 181 176 176 175 186 189 197 156 206 191 246 321 293 279 278 211 244 241 203 260 279 292 307 307 289 256 271 286 290 284 283 285 280 263 251 250 255 261 259 257 258 261 263 267 270 273 275 275 273
198 199 197 196 196 196 200 202 202 203 201 199 196 197 202 203 204 205 202 201 203 205 205 209 201 192 198 208 213 199 182 198 202 198 192 193 182 182 188 183 192 198 193 189 155 213 242 267 267 308 277 268 208 271 281 246 271 300 305 292 291 302 280 271 275 277 285 290 292 295 296 296 289 271 254 252 258 262 265 267 269 272 274 274 274
198 201 197 196 194 197 201 202 203 203 201 200 200 201 204 204 207 207 204 204 206 208 206 202 195 194 207 209 216 199 183 191 197 197 200 191 183 185 188 193 196 199 196 194 199 182 205 237 290 211 270 199 286 286 296 307 301 300 282 290 297 284 285 283 273 271 273 274 280 285 291 297 300 299 299 290 269 255 256 263 270 273 273 275 276
198 195 198 195 197 199 203 203 203 203 203 199 201 205 207 207 209 208 206 205 207 207 204 198 195 199 206 213 212 195 186 192 195 198 187 189 182 183 196 197 198 206 191 190 206 197 194 220 253 248 216 315 264 288 264 278 301 297 289 274 276 288 296 286 281 273 283 298 302 303 301 304 307 309 308 306 307 306 294 276 262 257 261 267 268
196 196 196 196 200 204 207 205 203 203 201 202 204 205 205 207 209 211 208 205 206 203 201 196 199 200 206 211 210 194 191 196 200 191 185 191 184 191 199 203 202 192 194 203 202 208 213 231 223 280 145 210 310 274 253 206 277 295 300 290 295 286 287 301 296 303 317 312 313 316 323 327 323 319 319 320 317 311 302 297 294 290 276 254 250
196 197 199 200 203 205 208 204 205 203 203 203 204 205 206 207 208 208 207 205 205 206 205 202 202 202 200 206 207 196 198 202 195 190 188 190 193 201 200 201 196 190 201 209 205 209 216 231 243 223 262 304 230 280 313 275 245 236 264 294 293 283 272 261 286 292 291 298 289 287 290 299 308 312 311 310 309 308 306 302 300 296 295 295 287
200 199 199 201 203 204 206 207 208 202 203 204 204 206 206 206 206 208 205 201 203 208 209 208 205 205 201 206 211 204 204 202 197 192 183 195 192 208 204 195 191 191 208 211 203 204 210 219 229 238 177 326 309 261 324 46 327 301 233 229 261 279 276 260 239 265 298 302 287 293 300 317 314 308 307 306 303 301 302 306 306 304 301 298 297
201 201 200 199 199 204 206 206 205 203 205 207 205 204 203 204 204 206 202 202 202 205 210 211 208 207 205 210 213 209 205 204 200 191 189 185 184 200 206 193 193 194 211 209 204 196 206 211 242 205 222 221 244 267 288 268 249 259 254 184 246 258 270 292 274 225 230 247 258 259 277 229 262 283 291 302 297 300 302 304 304 304 307 311 312
199 197 197 197 201 205 204 205 204 205 210 209 209 202 199 198 199 202 199 202 202 205 207 209 212 211 214 214 215 208 204 205 204 200 201 199 197 196 193 192 193 201 209 209 199 199 201 211 220 218 234 240 250 252 256 258 250 260 274 238 245 261 271 265 284 253 200 190 236 279 276 227 206 271 287 281 284 296 295 305 296 302 307 305 303
198 196 195 199 203 205 206 203 205 210 213 213 204 197 197 195 193 198 199 201 202 204 206 208 213 212 217 216 214 212 209 208 209 207 205 203 204 207 201 195 197 196 205 201 209 200 204 213 207 203 213 248 270 284 267 271 261 251 255 246 251 268 266 282 292 303 219 175 215 310 299 269 159 290 286 283 282 291 291 286 294 304 302 299 298
199 195 198 202 203 205 206 206 208 212 216 210 195 194 190 191 193 197 198 200 202 205 208 212 216 211 211 213 211 205 209 209 207 212 211 207 206 209 210 207 209 201 140 174 182 182 195 203 198 211 190 225 244 260 266 244 259 257 247 244 250 256 266 262 249 263 258 79 34 303 283 292 238 242 278 281 284 280 280 284 294 294 293 295 295
193 198 204 200 205 204 204 206 212 214 218 200 192 187 184 187 194 198 200 203 203 208 209 211 216 209 206 208 207 203 210 212 208 205 205 211 206 208 212 211 193 159 162 160 167 176 176 184 192 205 200 201 210 234 221 214 198 248 269 265 249 240 238 248 253 267 292 70 8 278 278 290 298 282 276 279 283 286 290 293 286 285 289 291 291
197 204 203 205 206 204 204 207 213 214 215 195 187 178 180 186 195 199 207 203 208 209 209 210 211 208 208 203 199 205 201 201 203 202 202 205 202 189 173 176 186 187 181 180 172 167 169 173 180 216 214 169 212 227 236 188 206 251 252 264 258 264 244 237 243 256 275 337 274 254 284 286 283 292 283 280 280 284 277 276 282 286 285 284 286
200 203 203 206 208 207 206 208 211 211 217 184 174 176 180 187 197 199 210 207 208 211 212 211 209 211 202 198 198 203 191 193 200 200 197 193 175 176 183 188 188 195 195 193 197 182 148 120 181 215 236 238 239 237 245 208 209 221 221 238 250 246 261 303 324 259 275 247 175 156 253 262 278 287 277 282 287 281 273 286 287 282 279 280 283
205 204 206 208 209 207 207 206 209 215 205 169 172 174 180 190 195 199 208 210 210 210 210 208 214 208 198 189 190 194 192 194 199 198 191 171 170 179 189 197 203 200 198 203 179 152 146 186 203 206 221 230 228 226 216 199 210 217 216 286 75 145 345 321 280 291 277 262 166 175 239 263 248 241 272 274 289 287 282 277 272 271 275 279 278
201 202 205 205 205 205 207 205 207 213 193 171 169 175 182 191 188 201 204 211 212 210 212 215 204 193 192 191 190 191 188 196 181 172 169 158 169 175 189 205 221 6 295 329 59 118 166 196 218 225 242 281 268 257 250 234 215 163 132 18 298 221 302 290 287 295 269 269 262 191 202 263 256 222 275 283 279 280 290 288 285 282 285 288 287
202 205 202 203 204 207 204 204 205 203 187 173 172 177 184 187 186 195 201 201 212 214 217 194 183 191 198 197 184 181 181 180 161 157 159 156 159 156 135 62 259 219 211 128 176 210 215 224 317 264 238 254 254 250 240 243 133 162 136 219 227 152 226 223 246 233 279 299 257 169 146 238 278 260 260 287 308 264 268 276 282 290 296 293 285
205 202 200 204 207 204 204 204 194 192 183 178 179 178 185 187 188 194 189 197 204 212 200 192 190 191 198 198 187 181 174 161 157 158 161 157 154 157 169 205 225 210 186 160 175 150 116 109 84 95 92 205 198 198 187 128 165 177 183 204 165 160 205 220 233 267 319 280 266 161 201 282 308 268 232 320 300 274 263 262 277 287 291 290 288